This is the latest recevied weather packets stored in our database for station/object DD6UBW. If no packets are shown the sender has not sent any weather packets the latest 10 day(s).
| Time | Temp. | Humidity | Pressure | Rain* | Wind** | Luminosity | Snow |
|---|---|---|---|---|---|---|---|
| 1777597202 | 6.67° C | 78% | 1028.6 hPa | 0 mm | - | - | - |
| 1777595401 | 6.67° C | 78% | 1028.6 hPa | 0 mm | - | - | - |
| 1777593601 | 7.22° C | 76% | 1028.6 hPa | 0 mm | - | - | - |
| 1777591801 | 7.78° C | 73% | 1028.6 hPa | 0 mm | - | - | - |
| 1777590002 | 8.89° C | 69% | 1028.6 hPa | 0 mm | - | - | - |
| 1777588201 | 8.89° C | 71% | 1028.6 hPa | 0 mm | - | - | - |
| 1777586401 | 8.89° C | 71% | 1028.6 hPa | 0 mm | - | - | - |
| 1777584601 | 9.44° C | 70% | 1028.6 hPa | 0 mm | - | - | - |
| 1777582801 | 10° C | 69% | 1028.6 hPa | 0 mm | - | - | - |
| 1777581001 | 10.56° C | 66% | 1028.6 hPa | 0 mm | - | - | - |
| 1777577404 | 12.22° C | 58% | 1028.6 hPa | 0 mm | - | - | - |
| 1777575602 | 13.89° C | 54% | 1027.6 hPa | 0 mm | - | - | - |
| 1777573801 | 15.56° C | 47% | 1027.6 hPa | 0 mm | - | - | - |
| 1777572001 | 17.22° C | 42% | 1027.6 hPa | 0 mm | - | - | - |
| 1777570201 | 17.78° C | 40% | 1027.6 hPa | 0 mm | - | - | - |
| 1777568401 | 18.33° C | 38% | 1027.6 hPa | 0 mm | - | - | - |
| 1777566601 | 18.89° C | 37% | 1027.6 hPa | 0 mm | - | - | - |
| 1777564800 | 20° C | 35% | 1027.6 hPa | 0 mm | - | - | - |
| 1777563001 | 19.44° C | 35% | 1028.6 hPa | 0 mm | - | - | - |
| 1777561201 | 19.44° C | 35% | 1028.6 hPa | 0 mm | - | - | - |
| 1777557602 | 19.44° C | 34% | 1028.6 hPa | 0 mm | - | - | - |
| 1777555801 | 19.44° C | 34% | 1028.6 hPa | 0 mm | - | - | - |
| 1777554001 | 19.44° C | 34% | 1029.6 hPa | 0 mm | - | - | - |
| 1777552201 | 18.89° C | 34% | 1029.6 hPa | 0 mm | - | - | - |
| 1777550401 | 18.33° C | 35% | 1029.6 hPa | 0 mm | - | - | - |
* Rain since midnight (hover to see other rain measurements)
** Current wind speed in m/s (hover to see current wind gust speed)